Theta_e
356 356 349 342 319 322 318 319 327 325 326 332 335 331 329 333 327 315 342 348 350 352 356 358 365 365 363 363 364 366 366 368 369 368 367 367 365 364 364 363 363 362 361 360 360 360 360 359 358
349 352 349 335 314 310 315 327 323 326 332 335 335 333 330 327 338 340 341 350 352 354 355 356 364 366 364 364 365 365 365 365 368 368 367 367 366 365 362 362 362 362 362 360 359 359 358 357 358
350 352 337 326 319 310 316 326 326 331 334 333 331 336 334 331 341 341 347 350 351 353 355 358 365 366 363 363 364 364 366 364 366 367 366 365 364 363 363 363 363 362 361 361 360 359 358 355 355
346 345 338 320 317 324 324 329 331 331 334 335 335 330 338 343 341 344 349 351 351 353 356 363 365 363 362 362 364 364 364 362 363 364 364 364 362 363 362 362 361 361 359 360 360 358 357 356 355
338 334 321 318 321 325 329 332 333 331 333 334 335 330 334 343 345 347 349 351 349 352 356 360 366 366 363 363 363 364 363 357 360 361 362 362 362 361 360 360 361 359 358 358 358 357 357 357 357
329 330 316 311 319 329 332 333 335 332 334 334 333 333 336 344 343 345 347 348 353 354 358 360 365 367 365 364 363 363 363 356 357 358 357 357 358 358 358 358 358 356 357 355 355 357 358 357 357
325 322 318 321 321 324 329 336 330 333 332 333 335 330 336 340 344 345 348 351 354 357 358 358 358 361 365 366 363 363 362 357 355 354 354 355 354 356 357 357 355 355 356 356 356 357 358 357 358
329 323 319 318 319 322 333 335 337 334 332 339 340 328 330 340 345 347 350 351 353 354 356 356 355 356 357 359 364 364 363 363 360 358 355 354 351 351 350 355 354 354 356 356 357 358 358 358 358
331 315 311 316 321 324 332 330 337 341 336 338 336 338 340 344 346 348 346 346 348 350 353 355 355 355 355 356 358 363 363 362 361 358 358 355 347 347 351 351 352 353 356 358 359 358 358 359 359
321 312 317 323 325 328 333 331 334 334 334 334 336 340 345 344 343 343 341 340 343 345 348 353 355 355 355 358 355 355 355 353 350 350 350 348 346 346 350 352 353 353 357 360 360 359 359 358 352
323 314 322 326 327 332 333 332 335 327 327 331 331 332 334 342 342 342 342 343 343 346 348 352 353 354 354 355 353 352 352 351 350 349 349 348 348 347 350 349 349 349 356 350 354 354 353 352 351
315 322 323 327 328 329 329 332 332 331 331 337 336 332 330 339 339 342 341 343 345 346 348 351 352 352 353 355 354 352 352 351 349 351 348 348 347 345 346 346 346 348 349 349 348 348 348 349 350
315 320 324 327 327 326 329 329 327 332 340 339 336 331 328 338 341 343 344 346 346 346 349 349 351 352 352 352 354 352 351 351 350 351 350 349 347 344 345 347 347 348 348 348 345 346 347 347 348
318 321 319 323 322 323 324 326 327 334 337 335 332 329 328 337 340 342 344 344 345 347 348 350 350 352 352 350 350 349 351 351 350 350 350 350 349 345 347 347 347 347 347 347 346 345 346 346 346
317 313 315 316 317 321 324 319 319 333 336 332 331 329 331 337 341 341 343 343 346 347 349 349 350 351 350 349 349 350 352 353 351 350 351 349 348 347 348 346 345 347 346 348 346 344 346 345 347
311 312 309 315 316 320 315 305 319 327 334 332 334 333 335 338 340 341 344 344 347 346 347 349 351 349 349 348 348 348 351 352 350 349 350 349 348 349 348 347 348 348 348 344 343 343 343 345 344
306 302 308 313 318 316 311 305 316 326 325 325 333 334 335 336 337 339 343 345 346 346 347 347 348 348 348 350 348 345 347 349 351 350 349 350 351 349 349 348 348 348 349 346 345 340 341 341 343
301 303 306 308 312 313 308 308 312 324 325 325 325 328 333 331 333 337 342 345 346 346 347 348 348 348 350 348 344 345 345 350 351 349 349 351 349 351 349 349 349 348 348 348 344 342 344 343 343
304 301 303 306 311 310 307 308 310 314 324 324 322 325 329 330 332 338 342 344 344 345 346 347 346 347 349 347 343 340 339 342 345 347 349 350 347 350 346 348 349 350 349 346 344 343 345 343 342
302 302 302 306 311 308 306 306 309 311 316 324 323 325 329 330 330 335 339 342 342 343 344 345 345 347 349 348 345 343 338 342 345 348 348 349 349 351 350 346 346 347 347 345 345 342 340 341 341
299 300 300 301 307 308 306 302 305 311 315 323 324 325 329 331 330 332 336 339 342 342 344 344 346 347 348 348 346 344 345 341 342 342 343 344 346 349 349 347 344 345 344 342 344 345 343 337 339
297 305 305 306 301 296 303 293 302 306 310 315 319 318 327 332 332 334 334 337 340 343 345 345 347 347 348 347 346 343 340 338 339 341 342 345 345 345 347 348 348 345 347 347 344 348 346 341 337
301 307 307 307 299 297 300 296 300 307 307 309 313 316 319 330 333 333 334 338 341 344 345 346 347 347 348 347 347 345 342 341 342 342 342 343 344 347 346 348 350 347 347 347 347 349 348 343 341
308 305 302 300 296 291 296 299 300 303 307 310 316 319 321 330 333 334 336 339 341 344 346 345 345 345 347 348 347 345 343 342 341 342 341 341 340 342 345 348 350 348 344 343 347 349 347 346 343
304 295 290 291 292 290 295 299 301 308 311 314 317 320 322 331 332 333 333 337 341 342 345 346 344 344 348 347 347 345 343 342 343 343 343 341 340 342 342 347 347 343 348 345 346 345 347 349 344
300 296 291 287 288 292 298 295 301 310 316 320 325 326 328 327 333 334 335 337 340 342 343 348 346 346 349 348 346 346 344 344 342 344 344 343 342 342 345 346 348 345 349 347 343 345 349 348 346
301 297 299 293 293 292 296 302 309 317 320 323 324 326 328 329 330 335 339 340 339 341 344 345 348 347 349 348 348 346 346 344 343 345 346 346 346 346 346 348 348 347 349 348 340 345 345 342 341
305 303 296 294 289 289 295 300 300 312 316 320 321 324 328 328 327 334 338 331 335 338 344 347 349 349 349 349 349 348 345 343 342 344 345 345 346 346 348 347 350 348 350 350 349 349 345 338 333
301 299 297 296 294 292 290 296 312 316 318 317 318 321 327 329 330 328 332 335 335 339 341 348 348 349 350 350 349 346 344 342 341 342 345 346 345 346 344 347 349 348 348 349 348 345 346 341 336
302 297 295 293 292 295 294 296 316 315 319 318 317 321 326 331 334 329 334 334 334 336 344 346 350 350 352 352 348 347 346 344 341 341 342 344 345 346 348 348 348 348 349 349 350 348 351 347 345
Wind_Speed
4 5 2 7 11 4 6 3 4 7 6 6 9 6 7 6 1 4 14 13 17 14 11 11 12 14 17 15 16 17 19 20 19 19 19 19 18 17 17 16 14 12 11 10 9 9 9 7 7
3 1 5 3 8 3 7 6 4 14 13 16 12 8 7 3 6 14 11 18 19 14 11 10 13 15 16 16 15 15 17 19 19 19 18 18 18 16 16 15 13 12 10 10 8 8 6 4 5
4 1 3 5 4 8 2 4 17 9 14 8 6 9 5 5 13 11 15 19 18 15 11 11 15 14 15 16 15 14 15 16 17 18 17 17 17 16 15 14 12 10 10 9 8 7 4 2 3
5 2 2 3 4 6 9 5 12 14 14 6 12 6 5 2 18 12 21 20 16 13 12 15 18 18 16 15 15 15 14 15 15 17 17 16 16 16 14 12 11 10 8 6 6 5 3 2 1
1 2 4 3 3 13 9 9 15 16 14 15 9 6 10 13 15 24 21 18 17 12 11 13 17 17 16 16 15 15 15 13 13 13 15 15 14 13 11 10 9 8 7 6 5 4 3 3 4
1 2 2 3 2 2 4 11 17 17 18 13 8 8 3 16 22 19 19 18 17 14 12 11 17 17 17 17 17 15 16 14 12 12 12 13 12 13 11 8 7 7 6 5 4 4 4 4 6
4 4 3 2 2 3 3 6 11 13 12 3 4 3 1 16 17 19 17 18 17 16 12 9 9 14 18 17 17 17 16 14 14 13 11 12 12 12 10 8 4 5 5 5 5 5 5 6 7
4 5 2 3 2 2 2 5 9 16 4 13 11 6 9 10 19 16 16 13 14 14 13 11 7 6 7 8 17 17 16 16 13 12 13 12 12 9 11 9 6 5 5 6 6 7 6 7 7
4 6 2 4 3 3 3 9 11 10 9 2 3 4 3 17 19 18 15 11 10 9 11 11 10 8 6 6 9 14 16 15 14 12 12 9 2 4 6 9 12 8 8 9 8 8 8 8 8
5 5 6 6 4 2 5 16 8 8 5 4 1 2 7 13 18 20 19 16 14 13 12 11 11 10 8 7 5 5 5 4 4 5 5 4 4 4 4 9 14 13 11 11 9 9 9 8 3
5 6 6 3 3 3 1 10 7 8 5 9 12 7 6 19 16 19 18 19 18 18 13 12 12 11 10 6 4 3 2 3 4 6 5 4 4 3 3 1 3 3 9 3 5 4 3 5 3
5 6 4 7 7 4 2 9 7 9 7 15 18 17 8 18 14 15 16 16 16 13 12 13 12 10 10 6 5 5 5 4 4 5 6 4 3 3 4 3 4 3 2 4 3 2 4 5 4
4 3 6 6 8 5 5 3 6 7 8 14 15 15 17 16 15 12 10 11 14 17 16 14 11 11 10 9 6 5 6 5 5 5 6 5 4 4 4 4 3 4 3 3 3 3 4 4 4
4 3 3 6 6 7 7 3 2 5 14 16 16 14 18 20 21 15 15 19 16 16 14 15 14 13 11 9 8 6 5 5 5 5 6 7 5 4 4 4 4 4 4 3 4 4 5 4 4
8 5 6 6 5 5 5 2 6 11 14 17 16 15 18 18 16 21 24 21 20 15 13 15 14 11 11 11 9 6 6 5 6 6 7 8 5 5 5 4 4 4 4 5 3 4 3 3 4
6 4 1 5 5 3 6 8 8 11 16 14 15 15 16 17 18 19 20 18 17 15 16 15 13 13 10 8 7 6 8 7 5 4 5 7 7 6 5 4 4 4 4 3 3 2 2 3 3
4 4 3 4 8 3 4 7 5 7 10 12 17 16 16 14 16 17 19 20 19 18 16 16 14 13 11 7 6 5 7 4 4 4 4 7 6 7 5 4 4 5 4 4 3 3 2 2 2
5 0 3 3 4 4 6 8 5 10 10 12 12 15 18 17 18 19 21 19 18 17 16 16 13 13 11 5 5 2 4 4 4 4 4 7 4 5 5 3 3 4 3 3 2 4 2 4 4
9 1 3 5 7 8 6 7 10 6 13 12 9 10 17 18 11 16 20 19 17 15 15 16 14 10 10 5 5 3 4 3 1 3 6 6 5 6 5 3 3 3 4 5 5 3 5 2 1
4 2 6 7 9 3 5 9 8 5 9 19 17 14 17 14 8 14 19 19 19 19 17 16 14 12 11 7 4 4 4 3 4 3 4 6 6 5 4 4 4 4 3 4 4 4 2 2 0
4 2 4 6 5 4 3 11 7 14 5 11 13 20 16 20 16 17 19 20 19 19 19 16 15 15 11 9 5 4 4 3 3 3 3 4 6 6 5 5 5 4 3 4 4 4 5 3 1
1 7 3 4 5 3 4 7 9 9 3 9 12 9 16 18 15 16 17 17 19 17 16 16 14 14 10 10 8 7 6 5 4 5 4 5 6 5 5 4 5 5 4 5 4 4 3 4 4
9 3 2 2 4 5 4 3 10 7 4 6 6 7 12 17 20 21 20 20 18 17 16 14 13 13 11 11 10 8 6 4 3 3 6 5 5 5 4 3 5 5 4 4 5 4 3 3 3
3 3 9 6 4 4 4 5 7 4 1 5 3 3 8 17 19 20 16 12 13 12 13 13 13 13 12 12 10 12 12 8 5 5 6 6 4 4 6 5 5 5 5 4 4 4 4 5 3
7 8 5 7 6 7 4 4 10 9 8 7 6 7 3 13 15 15 17 15 14 15 13 12 14 13 12 13 12 12 11 10 10 9 7 7 6 3 5 5 6 4 6 6 5 5 5 5 4
5 8 7 2 3 7 6 2 7 7 9 16 14 16 17 2 13 19 18 8 15 16 14 13 14 13 13 13 13 10 9 6 5 8 7 7 6 5 5 6 6 6 5 5 5 4 4 5 4
5 3 7 6 1 4 4 6 8 12 16 17 16 22 18 14 10 11 17 13 4 6 15 16 14 13 13 12 10 9 7 7 7 8 8 6 6 5 6 7 7 6 6 7 7 4 4 4 4
4 4 4 4 1 2 6 2 4 5 7 8 11 15 17 13 13 12 15 4 10 12 9 10 13 14 13 10 9 7 8 7 6 6 7 7 6 5 4 5 7 6 6 6 6 5 4 5 3
8 7 6 4 4 5 3 4 4 4 3 6 4 6 11 10 5 5 5 4 12 9 9 8 11 11 10 10 8 8 8 7 7 8 7 5 5 5 5 5 7 6 7 6 6 5 6 6 4
7 2 4 5 9 2 4 5 4 5 3 4 4 7 8 14 8 5 10 8 8 9 8 9 12 12 13 12 9 9 10 9 8 8 7 5 5 6 6 5 9 8 7 7 7 7 7 6 6
Wind_Direction
155 233 48 25 52 14 332 30 87 115 68 60 93 134 111 34 218 185 133 134 135 143 150 155 147 140 138 140 135 133 129 126 125 125 126 124 123 122 123 122 121 118 113 107 98 94 88 93 98
119 314 53 68 91 69 297 319 77 109 114 109 89 85 53 69 65 118 116 137 137 142 148 153 152 146 146 144 143 142 139 136 133 130 129 127 128 130 127 129 131 131 129 122 118 104 98 99 98
129 322 74 104 145 156 90 292 84 122 111 111 104 90 66 97 108 135 130 136 137 145 151 161 151 148 153 149 148 147 145 145 140 136 135 133 132 132 132 134 135 139 144 143 136 123 124 131 90
144 48 32 60 214 202 174 182 98 101 62 75 116 66 54 219 146 135 138 136 138 146 150 155 155 155 160 158 157 153 153 149 147 144 141 140 141 138 140 137 144 155 158 153 154 143 159 197 216
119 117 13 255 18 65 320 120 115 101 78 66 88 116 112 154 120 137 139 138 141 142 152 153 158 159 165 167 168 164 162 162 153 149 148 141 136 137 137 148 159 157 166 178 183 207 216 222 237
227 139 74 337 22 8 92 107 100 100 110 116 101 100 164 136 141 145 144 141 140 142 148 155 160 164 168 175 172 175 173 175 167 163 160 152 146 139 142 146 171 175 186 188 197 219 225 235 245
205 117 115 265 75 346 79 114 121 129 135 104 62 78 333 149 149 146 141 138 143 143 145 149 156 164 168 174 177 179 178 177 180 188 181 172 167 152 164 159 161 191 212 219 224 233 235 242 243
158 104 111 336 191 194 179 116 112 113 119 172 148 188 189 168 153 137 132 131 138 146 149 149 156 160 161 171 181 184 184 180 189 197 199 192 194 187 198 188 213 218 245 243 229 235 231 240 241
146 68 126 234 113 206 197 98 58 52 144 246 23 121 124 151 138 131 125 127 142 149 155 156 163 160 166 167 187 186 185 188 192 200 204 190 163 205 211 225 220 235 246 249 238 234 229 236 243
95 103 180 166 136 96 188 115 157 134 171 338 329 62 140 142 150 143 151 154 165 162 170 166 168 167 168 176 188 158 173 158 163 191 201 158 189 209 212 223 222 234 240 241 233 230 231 236 244
172 135 168 127 138 167 103 128 143 136 213 202 181 164 133 146 171 163 165 167 170 169 173 170 171 174 169 168 163 152 147 164 169 190 187 179 185 221 216 220 247 231 248 222 226 227 223 238 225
117 151 159 201 179 177 135 138 131 182 196 161 182 170 140 162 172 183 171 159 159 172 179 174 180 173 173 153 172 177 168 181 179 193 182 165 198 213 198 213 220 216 220 209 230 216 234 252 259
133 155 166 210 178 192 146 139 168 166 133 139 151 165 162 166 180 189 162 165 172 175 177 185 178 178 173 157 177 184 176 184 185 192 190 170 193 204 200 206 186 201 193 218 203 206 235 233 233
328 342 188 227 190 190 148 182 125 158 142 145 163 185 181 178 176 169 152 195 187 175 172 184 182 179 170 170 174 188 170 183 184 193 196 189 191 200 199 182 191 206 198 201 213 209 231 220 198
314 346 319 199 198 186 127 191 220 162 162 161 182 188 186 185 182 184 179 182 181 182 167 183 179 172 178 182 178 182 177 184 186 195 200 192 182 207 188 180 185 199 203 205 188 241 228 237 213
345 60 247 219 205 236 108 263 257 167 162 181 191 189 193 191 200 191 186 185 178 174 177 177 182 181 182 176 165 178 174 185 187 187 174 184 189 193 191 185 188 185 178 185 195 221 281 224 210
338 218 263 335 216 195 161 252 225 195 174 183 198 198 199 203 196 186 186 178 177 177 177 180 183 178 180 172 155 168 161 176 191 188 173 191 188 181 185 194 191 191 173 180 193 216 181 232 224
315 192 290 248 264 226 231 258 271 197 187 208 199 192 193 193 191 181 177 177 178 177 177 180 180 171 174 130 124 134 129 162 174 181 185 169 182 174 183 193 224 169 179 181 200 226 197 224 220
254 296 340 286 278 177 234 280 274 203 211 209 204 198 184 189 182 174 174 174 170 176 175 180 181 168 159 151 149 159 173 138 91 184 203 168 191 185 190 200 226 168 181 201 197 194 215 274 87
72 18 300 313 291 123 292 282 284 273 219 201 195 195 192 177 164 169 171 172 172 177 180 179 184 170 171 164 160 145 154 172 149 178 161 163 166 168 176 209 216 201 187 216 208 188 134 204 152
348 237 257 247 316 307 11 318 331 297 260 181 193 198 186 180 181 175 177 177 174 178 179 179 180 175 172 169 134 93 96 69 118 184 161 185 179 180 180 208 234 225 190 210 194 181 166 167 261
193 267 292 315 37 288 92 289 308 313 274 178 198 180 188 185 182 174 170 180 179 181 177 177 176 169 173 159 168 154 173 162 200 184 160 189 193 199 188 225 226 218 209 205 208 190 161 142 188
242 267 273 334 12 10 311 55 274 26 284 244 202 221 177 184 175 180 180 181 179 171 179 174 167 166 168 177 177 171 174 156 150 151 165 173 197 214 203 213 238 209 196 221 204 207 166 149 149
240 337 22 33 72 360 243 140 302 286 256 295 190 250 167 174 178 178 173 161 168 169 172 169 169 175 169 179 185 185 178 165 159 167 181 185 190 200 201 215 221 199 189 186 223 235 178 191 177
50 55 347 354 8 227 340 81 228 277 263 236 159 51 150 161 163 161 166 160 165 172 171 171 175 181 177 180 189 192 183 174 184 180 178 179 204 200 225 209 209 182 202 182 191 195 216 183 163
206 146 155 239 267 272 303 43 282 16 32 64 49 53 35 272 168 175 175 121 165 169 177 175 179 179 181 178 187 184 182 179 181 185 179 195 198 195 201 218 209 187 199 178 193 183 206 159 161
274 304 187 135 103 46 273 302 24 23 43 57 56 53 44 30 92 111 115 107 98 267 184 182 182 181 182 185 176 182 175 172 178 193 183 176 185 199 201 201 200 190 198 179 182 204 206 168 183
93 235 2 7 10 302 305 246 263 44 22 40 45 71 69 61 52 94 89 40 68 17 303 217 184 181 183 183 184 176 173 180 169 171 187 174 189 196 188 214 200 190 197 194 184 193 169 184 195
351 18 4 126 131 170 205 250 210 175 223 83 44 72 93 101 130 173 141 126 88 11 334 244 191 179 184 185 186 171 167 181 171 180 196 202 139 171 220 216 214 190 199 200 183 195 181 203 180
132 105 111 99 299 243 164 267 190 279 157 120 32 66 80 90 95 78 123 89 154 190 211 234 206 186 187 189 185 189 164 176 176 184 186 158 180 187 236 244 212 191 200 206 185 188 201 196 198